Regional Weather Roundup
Issued by NWS Cleveland, OH

Home | Current Version | Previous Version | Text Only | Print | Product List | Glossary Off
Versions: 1 2 3 4 5 6 7 8 9 10 11 12 13 14 15 16 17 18 19 20 21 22 23 24 25 26 27 28 29 30 31 32 33 34 35 36 37 38 39 40 41 42 43 44 45 46 47 48 49 50

000
ASUS41 KCLE 280202
RWRCLE
OHIO REGIONAL WEATHER ROUNDUP
NATIONAL WEATHER SERVICE CLEVELAND, OH
1000 PM EDT THU AUG 27 2015

NOTE: "FAIR" INDICATES FEW OR NO CLOUDS BELOW 12,000 FEET WITH NO
SIGNIFICANT WEATHER AND/OR OBSTRUCTIONS TO VISIBILITY.

OHZ001>008-015>018-024>027-034-035-043-044-280300-
   NORTHWEST OHIO

CITY           SKY/WX    TMP DP  RH WIND       PRES   REMARKS
DEFIANCE       CLEAR     63  55  75 NE5       30.18R
FINDLAY        CLEAR     64  56  75 E8        30.18R
TOLEDO EXPRESS MOCLDY    59  56  89 CALM      30.19R
TOLEDO EXEC    CLEAR     61  54  77 CALM      30.20R
LIMA           CLEAR     60  56  86 NE7       30.18R
$$

OHZ009>014-019>023-028>033-038-089-280300-
   NORTHEAST OHIO

CITY           SKY/WX    TMP DP  RH WIND       PRES   REMARKS
CLE-HOPKINS    PTCLDY    62  54  74 N3        30.21R
CLE-LAKEFRONT  CLEAR     64  55  72 N7        30.19R
CUY CO. ARPT   PTCLDY    57  55  94 N6        30.20R
LORAIN-ELYRIA  CLEAR     56  53  90 CALM      30.21R
ASHTABULA      CLEAR     54  53  97 CALM      30.20S
AKRON-CANTON   PTCLDY    59  53  80 N7        30.19R
WOOSTER        CLEAR     59  54  83 N3        30.20R
MANSFIELD      PTCLDY    60  55  83 N5        30.20R
YOUNGSTOWN     PTCLDY    60  54  80 N7        30.20R
$$

OHZ042-051>053-060>062-070>072-077>081-280300-
  SOUTHWEST OHIO

CITY           SKY/WX    TMP DP  RH WIND       PRES   REMARKS
CINC-COVINGTON CLEAR     64  56  75 CALM      30.16R
CINC-LUNKEN    CLEAR     59  58  96 CALM      30.16R
HAMILTON       CLEAR     59  56  89 CALM      30.17R
DAYTON         PTCLDY    63  56  78 NE5       30.18R
WRIGHT-PAT AFB CLEAR     63  58  84 CALM      30.17R
DAYTON GENERAL CLEAR     65  55  70 CALM      30.16R
WILMINGTON     CLEAR     60  56  86 CALM      30.17R
$$

OHZ036-037-039>041-045>050-054>059-063>069-073>076-082>088-280300-
  CENTRAL AND SOUTHEAST OHIO

CITY           SKY/WX    TMP DP  RH WIND       PRES   REMARKS
COLUMBUS       PTCLDY    63  56  78 N5        30.16R
OSU AIRPORT    CLEAR     66  54  65 N3        30.17R
BOLTON FIELD   NOT AVBL
RICKENBACK AFB PTCLDY    62  56  82 CALM      30.16R
NEWARK         CLEAR     58  56  93 CALM      30.17R
MARION         CLEAR     60  56  86 NE7       30.19R
LANCASTER      CLEAR     56  53  90 CALM      30.18R
ZANESVILLE     CLOUDY    66  55  67 CALM      30.17R
NEW PHILLY     MOCLDY    61  56  83 CALM      30.18R
$$


USA.gov is the U.S. government's official web portal to all federal, state and local government web resources and services.